BAW88 LSZH-EGCC

Flight info

Callsign BAW88
Flight time N/A
Altitude 40000
Route VEBIT4W/28 VEBIT1X VEBIT T10 TORPA DCT REKLA DCT RLP DCT ROTSI DCT KOTUN DCT AMAXA DCT VESAN DCT RATUK DCT SOVAT L613 SANDY UN57 WELIN T420 ELVOS ELVOS1M
Aircraft A388/J-SADE2E3FGHIJ3J4J5M1RWXY/LB1D1

Departure

Time 2026-04-26 12:58
Airport Zürich Airport (LSZH)

Arrival

Time N/A
Airport Manchester Airport (EGCC)
Time Latitude Longitude Altitude Speed Heading
2026-04-26 12:03 47.46139 8.55888 1402 ft 0 kts 276°
2026-04-26 12:34 47.46137 8.55922 1412 ft 4 kts 276°
2026-04-26 12:34 47.46134 8.55957 1413 ft 4 kts 273°
2026-04-26 12:34 47.46139 8.55988 1414 ft 4 kts 211°
2026-04-26 12:35 47.46164 8.56000 1414 ft 4 kts 186°
2026-04-26 12:35 47.46176 8.56002 1411 ft 1 kts 186°
2026-04-26 12:40 47.46135 8.55996 1407 ft 10 kts 185°
2026-04-26 12:40 47.46059 8.55986 1407 ft 13 kts 185°
2026-04-26 12:41 47.45960 8.55970 1407 ft 15 kts 197°
2026-04-26 12:41 47.45862 8.55878 1406 ft 16 kts 249°
2026-04-26 12:41 47.45860 8.55696 1408 ft 20 kts 276°
2026-04-26 12:41 47.45877 8.55469 1402 ft 25 kts 276°
2026-04-26 12:42 47.45892 8.55272 1407 ft 13 kts 276°
2026-04-26 12:42 47.45904 8.55118 1405 ft 17 kts 276°
2026-04-26 12:42 47.45956 8.54985 1408 ft 14 kts 330°
2026-04-26 12:42 47.46047 8.54922 1404 ft 15 kts 335°
2026-04-26 12:43 47.46144 8.54855 1407 ft 16 kts 335°
2026-04-26 12:43 47.46242 8.54789 1409 ft 15 kts 335°
2026-04-26 12:43 47.46347 8.54717 1404 ft 18 kts 335°
2026-04-26 12:43 47.46460 8.54640 1409 ft 18 kts 335°
2026-04-26 12:44 47.46577 8.54561 1406 ft 19 kts 335°
2026-04-26 12:44 47.46699 8.54480 1407 ft 19 kts 336°
2026-04-26 12:44 47.46820 8.54402 1403 ft 19 kts 336°
2026-04-26 12:44 47.46931 8.54331 1408 ft 16 kts 335°
2026-04-26 12:45 47.47020 8.54268 1411 ft 14 kts 334°
2026-04-26 12:45 47.47109 8.54205 1412 ft 14 kts 335°
2026-04-26 12:45 47.47196 8.54145 1414 ft 14 kts 335°
2026-04-26 12:45 47.47294 8.54079 1411 ft 17 kts 335°
2026-04-26 12:46 47.47395 8.54010 1411 ft 15 kts 336°
2026-04-26 12:46 47.47489 8.53948 1407 ft 16 kts 336°
2026-04-26 12:46 47.47580 8.53868 1411 ft 14 kts 310°
2026-04-26 12:46 47.47600 8.53821 1407 ft 0 kts 285°
2026-04-26 12:48 47.47600 8.53820 1407 ft 0 kts 285°
2026-04-26 12:54 47.47595 8.53715 1410 ft 14 kts 249°
2026-04-26 12:55 47.47518 8.53638 1410 ft 15 kts 173°
2026-04-26 12:55 47.47456 8.53670 1406 ft 0 kts 153°
2026-04-26 12:57 47.47261 8.53807 1408 ft 74 kts 154°
2026-04-26 12:57 47.46566 8.54286 1406 ft 140 kts 154°
2026-04-26 12:58 47.44531 8.55715 2026 ft 170 kts 152°
2026-04-26 12:58 47.43449 8.56463 2674 ft 175 kts 152°
2026-04-26 12:58 47.42294 8.57163 3317 ft 181 kts 155°
2026-04-26 12:58 47.41114 8.57850 3967 ft 185 kts 155°
2026-04-26 12:59 47.39903 8.58543 4646 ft 189 kts 155°
2026-04-26 12:59 47.38653 8.59364 4979 ft 209 kts 151°
2026-04-26 12:59 47.37402 8.60598 5029 ft 224 kts 123°
2026-04-26 12:59 47.36653 8.62651 5713 ft 228 kts 115°
2026-04-26 13:00 47.35992 8.64736 6821 ft 212 kts 97°
2026-04-26 13:00 47.36181 8.66767 7790 ft 207 kts 66°
2026-04-26 13:00 47.36928 8.68687 8409 ft 229 kts 44°
2026-04-26 13:00 47.38379 8.69754 9186 ft 243 kts
2026-04-26 13:01 47.40004 8.69237 10289 ft 242 kts 326°
2026-04-26 13:01 47.41095 8.67426 11112 ft 241 kts 291°
2026-04-26 13:01 47.41466 8.64986 11774 ft 252 kts 276°
2026-04-26 13:01 47.41606 8.62301 12230 ft 273 kts 273°
2026-04-26 13:02 47.41704 8.59379 12523 ft 297 kts 272°
2026-04-26 13:02 47.41806 8.56238 12830 ft 317 kts 272°
2026-04-26 13:02 47.41928 8.52878 13049 ft 338 kts 273°
2026-04-26 13:02 47.42063 8.49356 13566 ft 348 kts 273°
2026-04-26 13:03 47.42203 8.45798 14361 ft 348 kts 273°
2026-04-26 13:03 47.42346 8.42212 15001 ft 351 kts 273°
2026-04-26 13:03 47.42488 8.38601 15756 ft 351 kts 274°
2026-04-26 13:03 47.42630 8.34990 16468 ft 355 kts 274°
2026-04-26 13:04 47.42770 8.31338 17146 ft 356 kts 274°
2026-04-26 13:04 47.42910 8.27658 17775 ft 361 kts 274°
2026-04-26 13:04 47.43050 8.23938 18392 ft 365 kts 273°
2026-04-26 13:04 47.43193 8.20182 18972 ft 367 kts 274°
2026-04-26 13:05 47.43335 8.16412 19531 ft 369 kts 273°
2026-04-26 13:05 47.43478 8.12611 20065 ft 372 kts 273°
2026-04-26 13:05 47.43619 8.08785 20604 ft 375 kts 273°
2026-04-26 13:05 47.43756 8.04931 21158 ft 377 kts 273°
2026-04-26 13:06 47.43895 8.01050 21662 ft 380 kts 273°
2026-04-26 13:06 47.44035 7.97135 22162 ft 383 kts 273°
2026-04-26 13:06 47.44175 7.93192 22697 ft 386 kts 273°
2026-04-26 13:06 47.44315 7.89226 23220 ft 388 kts 273°
2026-04-26 13:07 47.44453 7.85232 23714 ft 391 kts 272°
2026-04-26 13:07 47.44592 7.81202 24044 ft 394 kts 272°
2026-04-26 13:07 47.44729 7.77145 24173 ft 395 kts 272°
2026-04-26 13:07 47.44865 7.73097 24185 ft 394 kts 272°
2026-04-26 13:08 47.44997 7.69101 24206 ft 395 kts 272°
2026-04-26 13:08 47.45133 7.64990 24482 ft 397 kts 272°
2026-04-26 13:08 47.45264 7.60968 24972 ft 397 kts 272°
2026-04-26 13:08 47.45396 7.56875 25430 ft 399 kts 272°
2026-04-26 13:09 47.45527 7.52761 25878 ft 402 kts 272°
2026-04-26 13:09 47.45657 7.48622 26349 ft 405 kts 273°
2026-04-26 13:09 47.45785 7.44443 26803 ft 408 kts 273°
2026-04-26 13:09 47.45914 7.40244 27324 ft 411 kts 273°
2026-04-26 13:10 47.46042 7.36024 27828 ft 414 kts 273°
2026-04-26 13:10 47.46171 7.31758 28334 ft 417 kts 273°
2026-04-26 13:10 47.46298 7.27464 28854 ft 420 kts 273°
2026-04-26 13:10 47.46424 7.23139 29373 ft 423 kts 273°
2026-04-26 13:11 47.46550 7.18774 29888 ft 426 kts 273°
2026-04-26 13:11 47.46676 7.14384 30395 ft 429 kts 273°
2026-04-26 13:11 47.46800 7.09958 30836 ft 432 kts 272°
2026-04-26 13:11 47.46923 7.05498 31250 ft 436 kts 273°
2026-04-26 13:12 47.47046 7.01004 31707 ft 439 kts 273°
2026-04-26 13:12 47.47168 6.96482 32149 ft 442 kts 273°
2026-04-26 13:12 47.47288 6.91927 32587 ft 445 kts 273°
2026-04-26 13:12 47.47409 6.87330 33014 ft 448 kts 273°
2026-04-26 13:13 47.47528 6.82714 33460 ft 451 kts 273°
2026-04-26 13:13 47.47645 6.78066 33895 ft 454 kts 272°
2026-04-26 13:13 47.47762 6.73388 34307 ft 457 kts 272°
2026-04-26 13:13 47.47878 6.68683 34671 ft 460 kts 272°
2026-04-26 13:14 47.48000 6.63941 35031 ft 463 kts 274°
2026-04-26 13:14 47.48282 6.59273 35517 ft 462 kts 277°
2026-04-26 13:14 47.48665 6.54562 36029 ft 461 kts 277°
2026-04-26 13:14 47.49051 6.49859 36545 ft 460 kts 277°
2026-04-26 13:15 47.49419 6.45151 37064 ft 459 kts 277°
2026-04-26 13:15 47.49767 6.40458 37572 ft 459 kts 276°
2026-04-26 13:15 47.50103 6.35772 38065 ft 458 kts 276°
2026-04-26 13:15 47.50322 6.32668 38388 ft 458 kts 276°
2026-04-26 13:16 47.50653 6.27926 38867 ft 457 kts 276°
2026-04-26 13:16 47.50973 6.23311 39247 ft 457 kts 276°
2026-04-26 13:16 47.51295 6.18638 39599 ft 457 kts 276°
2026-04-26 13:16 47.51616 6.13961 39931 ft 457 kts 276°
2026-04-26 13:17 47.52258 6.04532 40176 ft 462 kts 276°
2026-04-26 13:17 47.52575 5.99818 40179 ft 459 kts 276°
2026-04-26 13:18 47.53571 5.90467 40175 ft 460 kts 287°
2026-04-26 13:18 47.54665 5.86020 40178 ft 460 kts 294°
2026-04-26 13:18 47.58010 5.77982 40181 ft 460 kts 309°
2026-04-26 13:19 47.60160 5.74464 40186 ft 460 kts 312°
2026-04-26 13:19 47.64498 5.67492 40182 ft 460 kts 312°
2026-04-26 13:20 47.68789 5.60539 40180 ft 459 kts 311°
2026-04-26 13:20 47.73096 5.53552 40188 ft 458 kts 311°